DECAYED

PEGASUS DEB, 40244 (Decayed)

Orbit data source: Space-Track

PEGASUS DEB, 40244 was space debris in LEO originally from a launch on Thu, 19 May 1994 UTC launched from the Air Force Western Test Range (AFWTR). Debris objects in space refer to the collection of defunct objects orbiting the Earth. Examples of debris include non-operational satellites, rocket bodies, and fragments generated from explosions, collisions, or faulty payload assembly.

Not visible in the next 10 days
Identifier
40244, 1994-029AGL
Orbit
Decayed
Country
Flag of USUS
Related business
Manufacturer
Unknown
Mission
Decayed spacecraft
Bus & Motor
Unknown
Mass
Unknown
Launch date (UTC)
1994-05-19 (32 years ago)
Launch vehicle
Unknown
Launch site
Air Force Western Test Range (AFWTR)
Object type
Payload
Rocket body
Debris
Shape & HBR
Unknown shape, 0.1 m
Radar Cross Section
Small (<0.1 m²)

Expand to show TLE details & history
Last TLE update: 2 months ago

TLE from 2 months ago
0 PEGASUS DEB
1 40244U 94029AGL 26164.27577100  .00282577  00000-0  38614-2 0  9991
2 40244  81.8751   4.5175 0026499  88.8302 271.5986 15.56099773900242
Epoch: 2026-06-13T06:37Z
TLE epoch observation values (Epoch: 2026-06-13T06:37:06.614Z)
Latitude
-0.00004°
Longitude
3.64674°
Altitude
401.621 km
Speed
7.67 km/s
True Right ascension
00h 18m 04s
True Declination
0° 00' 00"
Sunlit
Object was in daylight at epoch
Visualization orbit readout
Latitude
Unknown
Longitude
Unknown
Altitude
Unknown
Speed
Unknown
Apparent Right ascension
Unknown
Apparent Declination
Unknown
Sunlit
N/A
Visualization observer readout
Local Sidereal Time
14:05:00
Azimuth
Unknown
Elevation
Unknown
Doppler factor
Unknown
Orbital elements
Apogee altitude
413.859 km
Perigee altitude
377.958 km
Semi-major axis
6,774.045 km
Eccentricity
0.00265
Inclination
81.8751°
RAAN
4.5175°
Arg. of periapsis
88.8302°
True anomaly
271.29504°
Mean anomaly
271.5986°
Eccentric anomaly
271.44682°
Mean motion
3.89288 °/min
Orbital period
92.48 mins
BSTAR
0.0038614
Loading maneuver chart data...
Computing Atmospheric mass density...

Documentation

Showing up to 5 results
|